This demonstration page uses our WeatherBlox Daily Observations layout. Learn more.

Left ArrowRight Arrow

34.16533, -84.80231

Hourly Observations for March 4, 2020

Temp ( °F °C ) Dew Point ( °F °C ) Humidity (%) Winds ( mph kmh ) Pressure ( in mb ) Visibility ( mi km ) Precip ( " mm )
12:53 am 00:53 Mostly Cloudy 58 14.4 54 12.2 87 87 Calm 29.91 1013 10 16 0.00 0.00
1:53 am 01:53 Cloudy 57 13.9 54 12.2 90 90 Calm 29.92 1013 10 16 0.01 0.25
2:53 am 02:53 Cloudy with Light Rain 57 13.9 55 12.8 93 93 Calm 29.93 1013 9 14 0.00 0.00
3:53 am 03:53 Cloudy 56 13.3 54 12.2 93 93 SW 3 6 29.93 1013 8 13 0.01 0.25
4:53 am 04:53 Cloudy 56 13.3 53 11.7 90 90 Calm 29.91 1013 9 14 0.02 0.51
5:53 am 05:53 Cloudy with Rain 55 12.8 52 11.1 90 90 Calm 29.98 1015 4 6 0.05 1.27
6:53 am 06:53 Mostly Cloudy 53 11.7 51 10.6 93 93 SE 3 6 29.95 1014 7 11 0.01 0.25
7:53 am 07:53 Mostly Cloudy 53 11.7 50 10 89 89 Calm 29.94 1014 7 11 0.00 0.00
8:53 am 08:53 Cloudy with Light Rain 53 11.7 51 10.6 93 93 Calm 30.01 1016 6 10 0.01 0.25
9:53 am 09:53 Cloudy with Light Rain 54 12.2 51 10.6 90 90 Calm 30.01 1016 7 11 0.01 0.25
10:53 am 10:53 Cloudy 55 12.8 51 10.6 87 87 Calm 29.99 1016 9 14 0.01 0.25
11:53 am 11:53 Cloudy 56 13.3 52 11.1 87 87 Calm 29.97 1015 10 16 0.00 0.00
12:11 pm 12:11 Mostly Cloudy 56 13.3 52 11.1 87 87 Calm 30.00 1016 10 16 0.00 0.00
12:53 pm 12:53 Cloudy 57 13.9 51 10.6 81 81 Calm 29.99 1016 10 16 0.00 0.00
1:53 pm 13:53 Cloudy with Light Rain 56 13.3 53 11.7 90 90 Calm 30.01 1016 6 10 0.02 0.51
2:02 pm 14:02 Cloudy with Light Rain 56 13.3 53 11.7 90 90 Calm 30.04 1017 6 10 0.00 0.00
2:28 pm 14:28 Cloudy with Light Rain 56 13.3 52 11.1 87 87 Calm 29.99 1016 8 13 0.01 0.25
2:41 pm 14:41 Cloudy 55 12.8 52 11.1 90 90 Calm 30.01 1016 10 16 0.01 0.25
2:53 pm 14:53 Cloudy with Light Rain 56 13.3 52 11.1 87 87 Calm 29.98 1015 7 11 0.01 0.25
3:53 pm 15:53 Cloudy with Light Rain 56 13.3 53 11.7 90 90 SE 5 7 29.94 1014 6 10 0.03 0.76
4:07 pm 16:07 Cloudy with Light Rain 57 13.9 53 11.7 87 87 NNW 9 15 29.99 1016 7 11 0.00 0.00
4:16 pm 16:16 Cloudy with Light Rain 55 12.8 52 11.1 90 90 NW 3 6 30.01 1016 8 13 0.00 0.00
4:44 pm 16:44 Cloudy with Light Rain 55 12.8 51 10.6 87 87 Calm 30.03 1017 7 11 0.01 0.25
4:53 pm 16:53 Cloudy with Light Rain 55 12.8 51 10.6 87 87 Calm 30.00 1016 9 14 0.01 0.25
5:53 pm 17:53 Cloudy 54 12.2 52 11.1 93 93 S 3 6 29.98 1015 9 14 0.00 0.00
6:53 pm 18:53 Cloudy 54 12.2 52 11.1 93 93 undefined N/A 30.04 1017 9 14 0.01 0.25
7:09 pm 19:09 Cloudy 54 12.2 51 10.6 90 90 VRB 3 6 30.07 1018 9 14 0.00 0.00
7:19 pm 19:19 Cloudy 53 11.7 51 10.6 93 93 SSE 5 7 30.05 1018 9 14 0.00 0.00
7:53 pm 19:53 Cloudy 53 11.7 51 10.6 93 93 VRB 5 7 30.04 1017 8 13 0.00 0.00
8:53 pm 20:53 Cloudy with Light Rain 53 11.7 51 10.6 93 93 Calm 30.07 1018 6 10 0.03 0.76
9:53 pm 21:53 Cloudy 53 11.7 50 10 89 89 Calm 30.01 1016 9 14 0.06 1.52
10:53 pm 22:53 Cloudy with Light Rain 52 11.1 48 8.9 86 86 S 3 6 30.02 1017 10 16 0.04 1.02
11:53 pm 23:53 Cloudy with Light Rain 52 11.1 48 8.9 86 86 S 5 7 29.96 1014 10 16 0.06 1.52

Powered by AerisWeather